ANA408 RJSK-RJTT

Flight info

Callsign ANA408
Flight time 0h 49m
Altitude 36000
Route YTE Y32 RUBIS Y10 GODIN
Aircraft A321/M-SDE3FGHIRWY/LB1

Departure

Time 2026-04-24 16:22
Airport Akita Airport (RJSK)

Arrival

Time 2026-04-24 17:11
Airport Tokyo Haneda International Airport (RJTT)
Time Latitude Longitude Altitude Speed Heading
2026-04-24 15:45 39.61237 140.22068 312 ft 0 kts 180°
2026-04-24 16:12 39.61258 140.22058 313 ft 4 kts 108°
2026-04-24 16:13 39.61262 140.22025 312 ft 4 kts 110°
2026-04-24 16:13 39.61271 140.21965 311 ft 4 kts 85°
2026-04-24 16:14 39.61275 140.21896 312 ft 4 kts 97°
2026-04-24 16:14 39.61278 140.21866 311 ft 2 kts 97°
2026-04-24 16:14 39.61279 140.21832 311 ft 0 kts 78°
2026-04-24 16:17 39.61281 140.21838 311 ft 4 kts 72°
2026-04-24 16:17 39.61394 140.21919 311 ft 11 kts 63°
2026-04-24 16:18 39.61374 140.22139 313 ft 15 kts 96°
2026-04-24 16:18 39.61350 140.22393 316 ft 16 kts 96°
2026-04-24 16:18 39.61339 140.22535 317 ft 17 kts 96°
2026-04-24 16:19 39.61303 140.22911 320 ft 21 kts 95°
2026-04-24 16:19 39.61288 140.23097 321 ft 20 kts 97°
2026-04-24 16:20 39.61337 140.23287 323 ft 10 kts
2026-04-24 16:20 39.61440 140.23281 322 ft 4 kts 276°
2026-04-24 16:20 39.61440 140.23251 322 ft 4 kts 276°
2026-04-24 16:21 39.61456 140.23080 322 ft 58 kts 277°
2026-04-24 16:21 39.61533 140.22217 313 ft 134 kts 276°
2026-04-24 16:21 39.61667 140.20782 467 ft 175 kts 277°
2026-04-24 16:22 39.61835 140.19230 1328 ft 174 kts 277°
2026-04-24 16:22 39.60598 140.16665 2440 ft 200 kts 196°
2026-04-24 16:22 39.59129 140.16637 2686 ft 226 kts 171°
2026-04-24 16:23 39.57499 140.17064 3128 ft 251 kts 167°
2026-04-24 16:23 39.55748 140.17586 3896 ft 262 kts 167°
2026-04-24 16:23 39.53939 140.18073 4805 ft 269 kts 169°
2026-04-24 16:24 39.50153 140.18874 6560 ft 281 kts 173°
2026-04-24 16:24 39.48195 140.19205 7389 ft 287 kts 174°
2026-04-24 16:24 39.46191 140.19515 8209 ft 292 kts 175°
2026-04-24 16:24 39.44176 140.19809 9019 ft 298 kts 176°
2026-04-24 16:25 39.42093 140.20108 9827 ft 304 kts 176°
2026-04-24 16:25 39.39931 140.20418 10451 ft 317 kts 176°
2026-04-24 16:25 39.37661 140.20740 10699 ft 340 kts 176°
2026-04-24 16:26 39.32713 140.21788 11215 ft 382 kts 164°
2026-04-24 16:26 39.30209 140.23060 11862 ft 389 kts 158°
2026-04-24 16:26 39.25172 140.25820 13355 ft 397 kts 159°
2026-04-24 16:27 39.22608 140.27207 14086 ft 402 kts 160°
2026-04-24 16:27 39.20019 140.28610 14722 ft 406 kts 160°
2026-04-24 16:27 39.17402 140.30025 15347 ft 410 kts 160°
2026-04-24 16:27 39.14762 140.31451 15965 ft 414 kts 160°
2026-04-24 16:28 39.12093 140.32899 16579 ft 418 kts 160°
2026-04-24 16:28 39.09349 140.34123 17172 ft 418 kts 169°
2026-04-24 16:28 39.03588 140.34865 18304 ft 417 kts 184°
2026-04-24 16:29 39.00682 140.34889 18857 ft 420 kts 184°
2026-04-24 16:29 38.97749 140.34926 19378 ft 422 kts 184°
2026-04-24 16:29 38.91838 140.35021 20428 ft 427 kts 184°
2026-04-24 16:30 38.85861 140.35120 21487 ft 431 kts 185°
2026-04-24 16:30 38.82850 140.35161 22024 ft 434 kts 185°
2026-04-24 16:30 38.79820 140.35200 22547 ft 436 kts 185°
2026-04-24 16:31 38.76774 140.35240 23086 ft 439 kts 185°
2026-04-24 16:31 38.73716 140.35281 23603 ft 441 kts 185°
2026-04-24 16:31 38.70638 140.35322 24057 ft 443 kts 185°
2026-04-24 16:31 38.67553 140.35366 24511 ft 444 kts 185°
2026-04-24 16:32 38.65504 140.35398 24805 ft 445 kts 185°
2026-04-24 16:32 38.61358 140.35462 25394 ft 446 kts 185°
2026-04-24 16:32 38.58248 140.35508 25821 ft 448 kts 185°
2026-04-24 16:32 38.55168 140.35555 26218 ft 449 kts 185°
2026-04-24 16:33 38.52040 140.35605 26614 ft 450 kts 186°
2026-04-24 16:33 38.48901 140.35653 27037 ft 451 kts 186°
2026-04-24 16:33 38.45755 140.35701 27448 ft 453 kts 186°
2026-04-24 16:33 38.42600 140.35748 27851 ft 454 kts 186°
2026-04-24 16:34 38.39419 140.36036 28231 ft 463 kts 178°
2026-04-24 16:34 38.36245 140.36938 28603 ft 473 kts 169°
2026-04-24 16:34 38.33124 140.38298 29090 ft 473 kts 168°
2026-04-24 16:34 38.30025 140.39666 29623 ft 470 kts 169°
2026-04-24 16:35 38.26942 140.41018 30138 ft 467 kts 169°
2026-04-24 16:35 38.23879 140.42351 30550 ft 464 kts 169°
2026-04-24 16:35 38.20821 140.43672 30946 ft 463 kts 170°
2026-04-24 16:35 38.17773 140.44986 31343 ft 462 kts 171°
2026-04-24 16:36 38.14735 140.46297 31744 ft 460 kts 171°
2026-04-24 16:36 38.11708 140.47607 32125 ft 459 kts 171°
2026-04-24 16:36 38.08690 140.48917 32423 ft 458 kts 171°
2026-04-24 16:36 38.05673 140.50226 32767 ft 458 kts 172°
2026-04-24 16:37 38.02665 140.51532 33191 ft 456 kts 172°
2026-04-24 16:37 37.99668 140.52830 33607 ft 454 kts 172°
2026-04-24 16:37 37.97688 140.53684 33891 ft 453 kts 173°
2026-04-24 16:37 37.93698 140.55401 34372 ft 452 kts 173°
2026-04-24 16:38 37.90724 140.56680 34718 ft 451 kts 173°
2026-04-24 16:38 37.87757 140.57959 35032 ft 451 kts 173°
2026-04-24 16:38 37.84826 140.59220 35335 ft 450 kts 173°
2026-04-24 16:38 37.81859 140.60493 35634 ft 450 kts 173°
2026-04-24 16:39 37.78851 140.61719 35924 ft 443 kts 178°
2026-04-24 16:39 37.75867 140.62426 36164 ft 430 kts 186°
2026-04-24 16:39 37.72963 140.62574 36216 ft 416 kts 194°
2026-04-24 16:39 37.70132 140.62202 36198 ft 402 kts 202°
2026-04-24 16:40 37.64740 140.60654 36220 ft 396 kts 204°
2026-04-24 16:40 37.59363 140.59102 36218 ft 396 kts 204°
2026-04-24 16:41 37.53979 140.57568 36217 ft 396 kts 204°
2026-04-24 16:41 37.48599 140.56028 36197 ft 396 kts 204°
2026-04-24 16:42 37.43230 140.54488 36206 ft 396 kts 204°
2026-04-24 16:42 37.37865 140.52948 36217 ft 395 kts 204°
2026-04-24 16:43 37.33405 140.51674 36213 ft 395 kts 204°
2026-04-24 16:43 37.28031 140.50145 36183 ft 395 kts 205°
2026-04-24 16:44 37.22674 140.48625 36155 ft 394 kts 205°
2026-04-24 16:44 37.17335 140.47107 36169 ft 393 kts 205°
2026-04-24 16:45 37.12000 140.45590 36073 ft 391 kts 205°
2026-04-24 16:45 37.09377 140.44856 35830 ft 381 kts 205°
2026-04-24 16:45 37.06843 140.44150 35563 ft 374 kts 206°
2026-04-24 16:46 37.04318 140.43442 35327 ft 368 kts 206°
2026-04-24 16:46 37.01843 140.42742 35085 ft 363 kts 206°
2026-04-24 16:46 36.99387 140.42044 34838 ft 360 kts 206°
2026-04-24 16:46 36.96941 140.41347 34255 ft 361 kts 206°
2026-04-24 16:47 36.94510 140.40659 33884 ft 355 kts 206°
2026-04-24 16:47 36.92107 140.39981 33296 ft 353 kts 206°
2026-04-24 16:47 36.89710 140.39300 32685 ft 353 kts 205°
2026-04-24 16:47 36.87316 140.38619 32125 ft 353 kts 205°
2026-04-24 16:48 36.84921 140.37943 31542 ft 352 kts 204°
2026-04-24 16:48 36.82548 140.37278 30791 ft 346 kts 204°
2026-04-24 16:48 36.80189 140.36615 29656 ft 348 kts 203°
2026-04-24 16:48 36.77834 140.35948 28643 ft 347 kts 203°
2026-04-24 16:49 36.75518 140.35297 27739 ft 343 kts 203°
2026-04-24 16:49 36.73192 140.34676 26864 ft 341 kts 201°
2026-04-24 16:49 36.70859 140.34157 26031 ft 340 kts 200°
2026-04-24 16:49 36.68519 140.33697 24877 ft 345 kts 199°
2026-04-24 16:50 36.66896 140.33383 23954 ft 353 kts 199°
2026-04-24 16:50 36.63610 140.32753 22404 ft 371 kts 196°
2026-04-24 16:50 36.60989 140.32241 22073 ft 393 kts 196°
2026-04-24 16:50 36.58254 140.31699 21402 ft 401 kts 195°
2026-04-24 16:51 36.55494 140.31154 20740 ft 402 kts 194°
2026-04-24 16:51 36.52728 140.30610 20065 ft 402 kts 194°
2026-04-24 16:51 36.49961 140.30064 19409 ft 402 kts 193°
2026-04-24 16:51 36.47194 140.29516 18760 ft 402 kts 192°
2026-04-24 16:52 36.44428 140.28969 18056 ft 402 kts 192°
2026-04-24 16:52 36.41675 140.28423 17441 ft 399 kts 192°
2026-04-24 16:52 36.38942 140.27880 16835 ft 396 kts 192°
2026-04-24 16:52 36.36230 140.27340 16241 ft 393 kts 192°
2026-04-24 16:53 36.33540 140.26804 15665 ft 390 kts 192°
2026-04-24 16:53 36.30876 140.26272 15100 ft 386 kts 192°
2026-04-24 16:53 36.28233 140.25743 14563 ft 383 kts 192°
2026-04-24 16:53 36.25608 140.25217 13974 ft 381 kts 192°
2026-04-24 16:54 36.22989 140.24695 13330 ft 379 kts 192°
2026-04-24 16:54 36.20428 140.24187 12868 ft 379 kts 192°
2026-04-24 16:54 36.17759 140.23654 12656 ft 394 kts 191°
2026-04-24 16:54 36.15049 140.23115 12386 ft 398 kts 191°
2026-04-24 16:55 36.12349 140.22582 12179 ft 384 kts 191°
2026-04-24 16:55 36.09764 140.22073 12051 ft 367 kts 191°
2026-04-24 16:55 36.07314 140.21590 11895 ft 342 kts 192°
2026-04-24 16:55 36.05070 140.21150 11618 ft 314 kts 192°
2026-04-24 16:56 36.02958 140.20734 11074 ft 305 kts 191°
2026-04-24 16:56 36.00851 140.20536 10807 ft 301 kts 183°
2026-04-24 16:56 35.98772 140.20508 10736 ft 299 kts 183°
2026-04-24 16:56 35.96694 140.20474 10599 ft 298 kts 183°
2026-04-24 16:57 35.94625 140.20436 10440 ft 297 kts 183°
2026-04-24 16:57 35.92557 140.20397 10279 ft 297 kts 183°
2026-04-24 16:57 35.90496 140.20358 10113 ft 296 kts 183°
2026-04-24 16:57 35.88463 140.20321 9947 ft 296 kts 183°
2026-04-24 16:58 35.86408 140.20284 9774 ft 295 kts 183°
2026-04-24 16:58 35.84372 140.20086 9626 ft 293 kts 189°
2026-04-24 16:58 35.82353 140.19754 9494 ft 292 kts 190°
2026-04-24 16:58 35.80342 140.19392 9360 ft 291 kts 190°
2026-04-24 16:59 35.78342 140.19021 9229 ft 291 kts 191°
2026-04-24 16:59 35.76345 140.18653 9104 ft 290 kts 191°
2026-04-24 16:59 35.72353 140.17928 8843 ft 289 kts 190°
2026-04-24 17:00 35.70386 140.17577 8710 ft 289 kts 190°
2026-04-24 17:00 35.66409 140.16868 8467 ft 287 kts 190°
2026-04-24 17:00 35.64435 140.16518 8321 ft 287 kts 190°
2026-04-24 17:01 35.60484 140.15820 8071 ft 287 kts 190°
2026-04-24 17:01 35.58510 140.15471 7934 ft 286 kts 189°
2026-04-24 17:02 35.54575 140.14770 7694 ft 286 kts 190°
2026-04-24 17:02 35.52619 140.14422 7566 ft 285 kts 190°
2026-04-24 17:02 35.50714 140.14085 7446 ft 284 kts 190°
2026-04-24 17:02 35.48706 140.13730 7320 ft 284 kts 189°
2026-04-24 17:03 35.44806 140.13047 7075 ft 282 kts 189°
2026-04-24 17:03 35.42871 140.12708 6954 ft 281 kts 189°
2026-04-24 17:03 35.41004 140.12188 6800 ft 280 kts 205°
2026-04-24 17:04 35.39264 140.11081 6526 ft 277 kts 212°
2026-04-24 17:04 35.36808 140.07651 5893 ft 272 kts 241°
2026-04-24 17:04 35.35865 140.05641 5526 ft 272 kts 242°
2026-04-24 17:05 35.34924 140.03630 5156 ft 272 kts 242°
2026-04-24 17:05 35.34127 140.01569 4988 ft 260 kts 255°
2026-04-24 17:05 35.34001 139.97439 4783 ft 231 kts 285°
2026-04-24 17:06 35.34539 139.95651 4565 ft 218 kts 301°
2026-04-24 17:06 35.36417 139.92978 4084 ft 201 kts 327°
2026-04-24 17:06 35.37598 139.92099 3828 ft 198 kts 333°
2026-04-24 17:07 35.38388 139.91542 3654 ft 199 kts 333°
2026-04-24 17:07 35.39988 139.90413 3304 ft 198 kts 333°
2026-04-24 17:07 35.42359 139.88738 2767 ft 198 kts 334°
2026-04-24 17:08 35.44754 139.87042 2235 ft 193 kts 335°
2026-04-24 17:08 35.45859 139.86258 1990 ft 176 kts 336°
2026-04-24 17:08 35.46855 139.85549 1744 ft 155 kts 337°
2026-04-24 17:09 35.48607 139.84312 1338 ft 140 kts 337°
2026-04-24 17:09 35.50269 139.83138 969 ft 137 kts 334°
2026-04-24 17:10 35.51085 139.82559 782 ft 134 kts 334°
2026-04-24 17:10 35.53446 139.80881 244 ft 128 kts 335°
2026-04-24 17:11 35.55326 139.79554 25 ft 38 kts 328°
2026-04-24 17:12 35.55515 139.79273 23 ft 0 kts 301°